Weather History for KOSH - June, 2014

Change the Weather History Date:

Thursday, June 12, 2014

  Actual Average Record
Temperature  
Mean Temperature 66 °F -  
Max Temperature 75 °F 78 °F 93 °F (1949)
Min Temperature 57 °F 56 °F 39 °F (1985)
Cooling Degree Days 1    
Growing Degree Days 16 (Base 50)    
Moisture  
Dew Point 55 °F    
Average Humidity 76    
Maximum Humidity 96    
Minimum Humidity 45    
Precipitation  
Precipitation 0.00 in - - ()
Sea Level Pressure  
Sea Level Pressure 29.73 in    
Wind  
Wind Speed 7 mph (West)    
Max Wind Speed 16 mph    
Max Gust Speed 26 mph    
Visibility 7 miles    
Events      
Averages and records for this station are not official NWS values.
T = Trace of Precipitation, MM = Missing Value Source: NWS Daily Summary

Daily Weather History Graph

Daily Weather History Graph

Search for Another Location

Airport or City:

Trip Planner

Search our weather history database for the weather conditions in past years. The results will help you decide how hot, cold, wet, or windy it might be!

Date:

Astronomy

Jun. 12, 2014 Rise Set
Actual Time 5:10 AM CDT 8:37 PM CDT
Civil Twilight 4:34 AM CDT 9:13 PM CDT
Nautical Twilight 3:47 AM CDT 10:01 PM CDT
Astronomical Twilight 2:47 AM CDT 11:01 PM CDT
Moon 8:06 PM CDT (6/12) 4:54 AM CDT (6/12)
Length of Visible Light 16h 38m
Length of Day
15h 26m
Full, 100% of the Moon is Illuminated
Jun 12
Full
Jun 12
Full
Jun 19
Last Quarter
Jun 27
New
Jul 5
First Quarter

Hourly Weather History & Observations

Time (CDT) Temp. Dew Point Humidity Pressure Visibility Wind Dir Wind Speed Gust Speed Precip Events Conditions
12:22 AM 61.0 °F 57.0 °F 87% 29.78 in 10.0 mi North 5.8 mph - N/A   Overcast
12:53 AM 61.0 °F 57.9 °F 90% 29.76 in 7.0 mi North 8.1 mph - N/A   Overcast
1:38 AM 61.0 °F 57.9 °F 90% 29.75 in 6.0 mi North 4.6 mph - N/A   Overcast
1:53 AM 61.0 °F 57.0 °F 87% 29.72 in 6.0 mi North 4.6 mph - N/A   Overcast
2:53 AM 60.1 °F 57.9 °F 93% 29.75 in 5.0 mi WNW 5.8 mph - N/A   Overcast
3:53 AM 60.1 °F 57.9 °F 93% 29.73 in 4.0 mi Calm Calm - N/A   Overcast
4:44 AM 59.0 °F 57.9 °F 96% 29.74 in 4.0 mi Calm Calm - N/A   Overcast
4:53 AM 59.0 °F 57.9 °F 96% 29.71 in 3.0 mi SE 3.5 mph - N/A   Overcast
5:25 AM 59.0 °F 57.9 °F 96% 29.73 in 2.5 mi Calm Calm - N/A   Overcast
5:53 AM 59.0 °F 57.9 °F 96% 29.71 in 2.0 mi South 3.5 mph - N/A   Overcast
6:03 AM 59.0 °F 57.9 °F 96% 29.73 in 1.5 mi Calm Calm - N/A   Overcast
6:24 AM 59.0 °F 57.9 °F 96% 29.72 in 2.0 mi South 3.5 mph - N/A   Overcast
6:40 AM 60.1 °F 57.9 °F 93% 29.73 in 2.5 mi SSW 6.9 mph - N/A   Mostly Cloudy
6:53 AM 60.1 °F 57.9 °F 93% 29.71 in 2.5 mi SSW 5.8 mph - N/A   Mostly Cloudy
7:06 AM 60.1 °F 57.0 °F 90% 29.72 in 4.0 mi South 9.2 mph - N/A   Overcast
7:31 AM 60.1 °F 57.9 °F 93% 29.73 in 3.0 mi SSW 9.2 mph - N/A   Mostly Cloudy
7:38 AM 60.1 °F 57.9 °F 93% 29.73 in 2.5 mi SSW 8.1 mph - N/A   Mostly Cloudy
7:53 AM 61.0 °F 59.0 °F 93% 29.72 in 3.0 mi South 8.1 mph - N/A   Overcast
8:27 AM 64.0 °F 60.1 °F 87% 29.73 in 5.0 mi South 10.4 mph - N/A   Scattered Clouds
9:53 AM 70.0 °F 60.1 °F 71% 29.69 in 10.0 mi SSW 12.7 mph - N/A   Mostly Cloudy
10:53 AM 72.0 °F 61.0 °F 68% 29.69 in 10.0 mi Variable 6.9 mph - N/A   Mostly Cloudy
11:20 AM 72.0 °F 61.0 °F 68% 29.72 in 10.0 mi West 8.1 mph - N/A   Mostly Cloudy
11:31 AM 73.9 °F 61.0 °F 64% 29.72 in 10.0 mi WSW 9.2 mph 16.1 mph N/A   Mostly Cloudy
11:53 AM 73.0 °F 61.0 °F 66% 29.69 in 10.0 mi West 9.2 mph - N/A   Mostly Cloudy
12:53 PM 73.9 °F 55.9 °F 53% 29.68 in 10.0 mi West 12.7 mph 24.2 mph N/A   Mostly Cloudy
1:53 PM 73.9 °F 54.0 °F 50% 29.70 in 10.0 mi West 10.4 mph 23.0 mph N/A   Scattered Clouds
2:53 PM 73.0 °F 53.1 °F 49% 29.70 in 10.0 mi WNW 15.0 mph 21.9 mph N/A   Partly Cloudy
3:53 PM 72.0 °F 52.0 °F 49% 29.71 in 10.0 mi WNW 12.7 mph 26.5 mph N/A   Partly Cloudy
4:53 PM 71.1 °F 48.9 °F 45% 29.73 in 10.0 mi West 15.0 mph 23.0 mph N/A   Partly Cloudy
5:53 PM 70.0 °F 48.9 °F 47% 29.73 in 10.0 mi WNW 13.8 mph - N/A   Partly Cloudy
6:53 PM 69.1 °F 50.0 °F 51% 29.75 in 10.0 mi WNW 13.8 mph - N/A   Partly Cloudy
7:53 PM 66.0 °F 46.0 °F 48% 29.76 in 10.0 mi WNW 16.1 mph 25.3 mph N/A   Clear
8:53 PM 62.1 °F 46.0 °F 56% 29.78 in 10.0 mi WNW 12.7 mph - N/A   Clear
9:53 PM 60.1 °F 46.0 °F 60% 29.81 in 10.0 mi WNW 10.4 mph 20.7 mph N/A   Clear
10:53 PM 61.0 °F 45.0 °F 56% 29.80 in 10.0 mi WNW 13.8 mph 21.9 mph N/A   Overcast
11:53 PM 57.9 °F 45.0 °F 62% 29.81 in 10.0 mi WNW 11.5 mph - N/A   Mostly Cloudy